Regional Weather Roundup
Issued by NWS

Home | Current Version | Previous Version | Text Only | Print | Product List | Glossary On
Versions: 1 2 3 4 5 6 7 8 9 10 11 12 13 14 15 16 17 18 19 20 21 22 23 24 25 26 27 28 29 30 31 32 33 34 35 36 37 38 39 40 41 42 43 44 45 46 47 48 49 50
462
ASUS44 KJAN 160703
RWRMS

MISSISSIPPI HOURLY WEATHER ROUNDUP
NATIONAL WEATHER SERVICE JACKSON MS
200 AM CDT TUE SEP 16 2014

NOTE: "FAIR: INDICATES FEW OR NO CLOUDS BELOW 12,000 FEET WITH NO
SIGNIFICANT WEATHER AND/OR OBSTRUCTIONS TO VISIBILITY.

MSZ001>002-007>008-010>013-018>021-025>028-034>036-160800-
NORTHWEST MISSISSIPPI

CITY           SKY/WX    TMP DP  RH WIND       PRES   REMARKS
CLARKSDALE     CLOUDY    72  68  88 CALM      30.12R
CLEVELAND      FAIR      70  69  96 SW3       30.11S
GREENWOOD      MOCLDY    71  69  93 CALM      30.11S
GREENVILLE     CLOUDY    71  67  87 CALM      30.11F
GRENADA        FAIR      70  68  94 CALM      30.11S
OLIVE BRANCH   MOCLDY    70  70 100 CALM      30.11S
OXFORD         FAIR      68  68 100 CALM      30.12F
TUNICA         PTSUNNY   70  66  88 CALM      30.11S
$$

MSZ003>006-009-014>017-022>024-029>033-037>039-160800-
NORTHEAST MISSISSIPPI

CITY           SKY/WX    TMP DP  RH WIND       PRES   REMARKS
COLUMBUS AFB   CLOUDY    74  69  87 CALM      30.09F
CORINTH          N/A    N/A N/A N/A N3        30.10S
GOLDN TRIANGLE CLOUDY    72  66  83 CALM      30.10F
STARKVILLE     FAIR      72  68  88 CALM      30.10F
TUPELO         CLOUDY    74  67  78 CALM      30.09F
$$

MSZ040-058-160800-
CENTRAL MISSISSIPPI

CITY           SKY/WX    TMP DP  RH WIND       PRES   REMARKS
JACKSON INTL   CLOUDY    75  72  90 N3        30.09F
JACKSON HAWKNS MOCLDY    78  70  76 CALM      30.10S
MERIDIAN KEY   CLOUDY    74  72  93 CALM      30.09F
MERIDIAN NAS   CLOUDY    74  72  93 CALM      30.10S
RAYMOND        FAIR      72  66  83 CALM      30.10S HAZE
VICKSBURG      CLEAR     74  69  85 N3        30.10S
$$

MSZ059>079-160800-
SOUTH MISSISSIPPI

CITY           SKY/WX    TMP DP  RH WIND       PRES   REMARKS
BROOKHAVEN     FAIR      73  73 100 CALM      30.11S FOG
HATTIESBURG    PTCLDY    75  71  87 CALM      30.09S
MCCOMB         MOCLDY    77  74  90 CALM      30.09F
NATCHEZ        CLEAR     73  72  94 W5        30.10S
PINE BELT      PTCLDY   N/A N/A N/A CALM      30.09F
$$

MSZ080>082-160800-
COASTAL MISSISSIPPI

CITY           SKY/WX    TMP DP  RH WIND       PRES   REMARKS
BILOXI         MOCLDY    78  76  93 NW1       30.06F
PASCAGOULA     PTCLDY    74  73  97 CALM      30.06F
GULFPORT       MOCLDY    77  75  93 CALM      30.06F
$$



USA.gov is the U.S. government's official web portal to all federal, state and local government web resources and services.